﻿Station,date_time,longitude,latitude,depth,sw_sal,sw_sal_result_value_qualifier,sea_water_temperature,sea_water_temperature_result_value_qualifier,sea_water_pressure,sea_water_pressure_result_value_qualifier,KD_PAR,KD_PAR_result_value_qualifier,Turbidity,Turbidity_result_value_qualifier
Niaqungu River,2022-05-05 19:15,-86.722248,66.525493,15,32.3414,,-1.88,,33.11,,,,28741.3,
Niaqungu River,2022-05-05 19:30,-86.722248,66.525493,15,32.2154,,-1.84,,33.111,,,,28615.6,
Niaqungu River,2022-05-05 19:45,-86.722248,66.525493,15,32.2872,,-1.83,,33.111,,,,28672.8,
Niaqungu River,2022-05-05 20:00,-86.722248,66.525493,15,32.561,,-1.83,,33.111,,,,28893.9,
Niaqungu River,2022-05-05 20:15,-86.722248,66.525493,15,32.5851,,-1.83,,33.111,,,,28912.9,
Niaqungu River,2022-05-05 20:30,-86.722248,66.525493,15,32.465,,-1.84,,33.111,,,,28818.3,
Niaqungu River,2022-05-05 20:45,-86.722248,66.525493,15,32.6458,,-1.84,,33.11,,,,28966.6,
Niaqungu River,2022-05-05 21:00,-86.722248,66.525493,15,32.7216,,-1.84,,33.11,,,,29027.8,
Niaqungu River,2022-05-05 21:15,-86.722248,66.525493,15,32.671,,-1.84,,33.11,,,,28987,
Niaqungu River,2022-05-05 21:30,-86.722248,66.525493,15,32.6458,,-1.84,,33.11,,,,28966.6,
Niaqungu River,2022-05-05 21:45,-86.722248,66.525493,15,32.5954,,-1.84,,33.11,,,,28925.9,
Niaqungu River,2022-05-05 22:00,-86.722248,66.525493,15,32.7723,,-1.84,,33.11,,,,29068.7,
Niaqungu River,2022-05-05 22:15,-86.722248,66.525493,15,32.748,,-1.84,,33.11,,,,29049.6,
Niaqungu River,2022-05-05 22:30,-86.722248,66.525493,15,32.6973,,-1.84,,33.11,,,,29008.7,
Niaqungu River,2022-05-05 22:45,-86.722248,66.525493,15,32.8508,,-1.84,,33.11,,,,29133,
Niaqungu River,2022-05-05 23:00,-86.722248,66.525493,15,32.9019,,-1.84,,33.11,,,,29174.2,
Niaqungu River,2022-05-05 23:15,-86.722248,66.525493,15,32.7977,,-1.84,,33.11,,,,29089.2,
Niaqungu River,2022-05-05 23:30,-86.722248,66.525493,15,32.8763,,-1.84,,33.11,,,,29153.6,
Niaqungu River,2022-05-05 23:45,-86.722248,66.525493,15,32.8998,,-1.84,,33.11,,,,29171.6,
Niaqungu River,2022-05-06 0:00,-86.722248,66.525493,15,32.868,,-1.84,,33.111,,,,29143.1,
Niaqungu River,2022-05-06 0:15,-86.722248,66.525493,15,32.817,,-1.84,,33.111,,,,29101.9,
Niaqungu River,2022-05-06 0:30,-86.722248,66.525493,15,32.8435,,-1.84,,33.111,,,,29123.8,
Niaqungu River,2022-05-06 0:45,-86.722248,66.525493,15,32.8424,,-1.84,,33.111,,,,29122.5,
Niaqungu River,2022-05-06 1:00,-86.722248,66.525493,15,32.7915,,-1.84,,33.111,,,,29081.4,
Niaqungu River,2022-05-06 1:15,-86.722248,66.525493,15,32.7112,,-1.83,,33.111,,,,29014.7,
Niaqungu River,2022-05-06 1:30,-86.722248,66.525493,15,32.8138,,-1.83,,33.111,,,,29098,
Niaqungu River,2022-05-06 1:45,-86.722248,66.525493,15,32.8904,,-1.83,,33.111,,,,29159.8,
Niaqungu River,2022-05-06 2:00,-86.722248,66.525493,15,32.7873,,-1.83,,33.111,,,,29076.1,
Niaqungu River,2022-05-06 2:15,-86.722248,66.525493,15,32.7091,,-1.83,,33.111,,,,29012.1,
Niaqungu River,2022-05-06 2:30,-86.722248,66.525493,15,32.7365,,-1.83,,33.111,,,,29035.2,
Niaqungu River,2022-05-06 2:45,-86.722248,66.525493,15,32.8383,,-1.83,,33.111,,,,29117.2,
Niaqungu River,2022-05-06 3:00,-86.722248,66.525493,15,32.8383,,-1.83,,33.111,,,,29117.2,
Niaqungu River,2022-05-06 3:15,-86.722248,66.525493,15,32.7873,,-1.83,,33.111,,,,29076.1,
Niaqungu River,2022-05-06 3:30,-86.722248,66.525493,15,32.7863,,-1.83,,33.111,,,,29074.8,
Niaqungu River,2022-05-06 3:45,-86.722248,66.525493,15,32.7112,,-1.83,,33.111,,,,29014.7,
Niaqungu River,2022-05-06 4:00,-86.722248,66.525493,15,33.0695,,-1.83,,33.111,,,,29303.6,
Niaqungu River,2022-05-06 4:15,-86.722248,66.525493,15,32.7884,,-1.83,,33.111,,,,29077.4,
Niaqungu River,2022-05-06 4:30,-86.722248,66.525493,15,32.7376,,-1.83,,33.111,,,,29036.5,
Niaqungu River,2022-05-06 4:45,-86.722248,66.525493,15,33.0189,,-1.83,,33.111,,,,29263.3,
Niaqungu River,2022-05-06 5:00,-86.722248,66.525493,15,32.9921,,-1.83,,33.111,,,,29241.2,
Niaqungu River,2022-05-06 5:15,-86.722248,66.525493,15,32.8894,,-1.83,,33.111,,,,29158.4,
Niaqungu River,2022-05-06 5:30,-86.722248,66.525493,15,32.9931,,-1.83,,33.111,,,,29242.5,
Niaqungu River,2022-05-06 5:45,-86.722248,66.525493,15,32.915,,-1.83,,33.111,,,,29179.1,
Niaqungu River,2022-05-06 6:00,-86.722248,66.525493,15,32.8894,,-1.83,,33.111,,,,29158.4,
Niaqungu River,2022-05-06 6:15,-86.722248,66.525493,15,32.7873,,-1.83,,33.111,,,,29076.1,
Niaqungu River,2022-05-06 6:30,-86.722248,66.525493,15,32.8383,,-1.83,,33.111,,,,29117.2,
Niaqungu River,2022-05-06 6:45,-86.722248,66.525493,15,32.8617,,-1.83,,33.111,,,,29135.2,
Niaqungu River,2022-05-06 7:00,-86.722248,66.525493,15,32.8393,,-1.83,,33.111,,,,29118.5,
Niaqungu River,2022-05-06 7:15,-86.722248,66.525493,15,32.7355,,-1.83,,33.111,,,,29033.8,
Niaqungu River,2022-05-06 7:30,-86.722248,66.525493,15,32.7365,,-1.83,,33.111,,,,29035.2,
Niaqungu River,2022-05-06 7:45,-86.722248,66.525493,15,32.8383,,-1.83,,33.111,,,,29117.2,
Niaqungu River,2022-05-06 8:00,-86.722248,66.525493,15,32.8638,,-1.83,,33.111,,,,29137.8,
Niaqungu River,2022-05-06 8:15,-86.722248,66.525493,15,32.7386,,-1.84,,33.111,,,,29037.8,
Niaqungu River,2022-05-06 8:30,-86.722248,66.525493,15,32.818,,-1.84,,33.111,,,,29103.2,
Niaqungu River,2022-05-06 8:45,-86.722248,66.525493,15,32.8211,,-1.84,,33.11,,,,29107.2,
Niaqungu River,2022-05-06 9:00,-86.722248,66.525493,15,32.7977,,-1.84,,33.11,,,,29089.2,
Niaqungu River,2022-05-06 9:15,-86.722248,66.525493,15,32.7226,,-1.84,,33.11,,,,29029.1,
Niaqungu River,2022-05-06 9:30,-86.722248,66.525493,15,32.6216,,-1.84,,33.11,,,,28947.6,
Niaqungu River,2022-05-06 9:45,-86.722248,66.525493,15,32.7226,,-1.84,,33.11,,,,29029.1,
Niaqungu River,2022-05-06 10:00,-86.722248,66.525493,15,32.748,,-1.84,,33.11,,,,29049.6,
Niaqungu River,2022-05-06 10:15,-86.722248,66.525493,15,32.6489,,-1.85,,33.11,,,,28970.5,
Niaqungu River,2022-05-06 10:30,-86.722248,66.525493,15,32.672,,-1.84,,33.11,,,,28988.3,
Niaqungu River,2022-05-06 10:45,-86.722248,66.525493,15,32.6983,,-1.84,,33.11,,,,29010,
Niaqungu River,2022-05-06 11:00,-86.722248,66.525493,15,32.8242,,-1.84,,33.11,,,,29111.1,
Niaqungu River,2022-05-06 11:15,-86.722248,66.525493,15,32.7247,,-1.85,,33.11,,,,29031.7,
Niaqungu River,2022-05-06 11:30,-86.722248,66.525493,15,32.6731,,-1.84,,33.11,,,,28989.6,
Niaqungu River,2022-05-06 11:45,-86.722248,66.525493,15,32.6669,,-1.84,,33.111,,,,28981.7,
Niaqungu River,2022-05-06 12:00,-86.722248,66.525493,15,32.6133,,-1.84,,33.111,,,,28937.1,
Niaqungu River,2022-05-06 12:15,-86.722248,66.525493,15,32.5641,,-1.84,,33.111,,,,28897.8,
Niaqungu River,2022-05-06 12:30,-86.722248,66.525493,15,32.6396,,-1.84,,33.111,,,,28958.8,
Niaqungu River,2022-05-06 12:45,-86.722248,66.525493,15,32.5631,,-1.84,,33.111,,,,28896.5,
Niaqungu River,2022-05-06 13:00,-86.722248,66.525493,15,32.516,,-1.84,,33.111,,,,28860,
Niaqungu River,2022-05-06 13:15,-86.722248,66.525493,15,32.49,,-1.84,,33.111,,,,28838.5,
Niaqungu River,2022-05-06 13:30,-86.722248,66.525493,15,32.463,,-1.84,,33.111,,,,28815.7,
Niaqungu River,2022-05-06 13:45,-86.722248,66.525493,15,32.4132,,-1.84,,33.111,,,,28775.5,
Niaqungu River,2022-05-06 14:00,-86.722248,66.525493,15,32.3893,,-1.84,,33.111,,,,28756.7,
Niaqungu River,2022-05-06 14:15,-86.722248,66.525493,15,32.3397,,-1.84,,33.111,,,,28716.6,
Niaqungu River,2022-05-06 14:30,-86.722248,66.525493,15,32.3119,,-1.83,,33.111,,,,28692.7,
Niaqungu River,2022-05-06 14:45,-86.722248,66.525493,15,32.435,,-1.83,,33.111,,,,28791.7,
Niaqungu River,2022-05-06 15:00,-86.722248,66.525493,15,32.3842,,-1.83,,33.111,,,,28750.2,
Niaqungu River,2022-05-06 15:15,-86.722248,66.525493,15,32.3336,,-1.83,,33.111,,,,28708.8,
Niaqungu River,2022-05-06 15:30,-86.722248,66.525493,15,32.3099,,-1.83,,33.111,,,,28690.1,
Niaqungu River,2022-05-06 15:45,-86.722248,66.525493,15,32.2852,,-1.83,,33.111,,,,28670.2,
Niaqungu River,2022-05-06 16:00,-86.722248,66.525493,15,32.3336,,-1.83,,33.111,,,,28708.8,
Niaqungu River,2022-05-06 16:15,-86.722248,66.525493,15,32.2831,,-1.83,,33.111,,,,28667.6,
Niaqungu River,2022-05-06 16:30,-86.722248,66.525493,15,32.2595,,-1.83,,33.111,,,,28648.9,
Niaqungu River,2022-05-06 16:45,-86.722248,66.525493,15,32.2359,,-1.83,,33.111,,,,28630.3,
Niaqungu River,2022-05-06 17:00,-86.722248,66.525493,15,32.2349,,-1.83,,33.111,,,,28629,
Niaqungu River,2022-05-06 17:15,-86.722248,66.525493,15,32.2113,,-1.83,,33.111,,,,28610.5,
Niaqungu River,2022-05-06 17:30,-86.722248,66.525493,15,32.3109,,-1.83,,33.111,,,,28691.4,
Niaqungu River,2022-05-06 17:45,-86.722248,66.525493,15,32.3842,,-1.83,,33.111,,,,28750.2,
Niaqungu River,2022-05-06 18:00,-86.722248,66.525493,15,32.3336,,-1.83,,33.111,,,,28708.8,
Niaqungu River,2022-05-06 18:15,-86.722248,66.525493,15,32.3109,,-1.83,,33.111,,,,28691.4,
Niaqungu River,2022-05-06 18:30,-86.722248,66.525493,15,32.2852,,-1.83,,33.111,,,,28670.2,
Niaqungu River,2022-05-06 18:45,-86.722248,66.525493,15,32.2615,,-1.83,,33.111,,,,28651.5,
Niaqungu River,2022-05-06 19:00,-86.722248,66.525493,15,32.3842,,-1.83,,33.111,,,,28750.2,
Niaqungu River,2022-05-06 19:15,-86.722248,66.525493,15,32.3346,,-1.83,,33.111,,,,28710.1,
Niaqungu River,2022-05-06 19:30,-86.722248,66.525493,15,32.2842,,-1.83,,33.111,,,,28668.9,
Niaqungu River,2022-05-06 19:45,-86.722248,66.525493,15,32.3336,,-1.83,,33.111,,,,28708.8,
Niaqungu River,2022-05-06 20:00,-86.722248,66.525493,15,32.2349,,-1.83,,33.111,,,,28629,
Niaqungu River,2022-05-06 20:15,-86.722248,66.525493,15,32.2605,,-1.83,,33.111,,,,28650.2,
Niaqungu River,2022-05-06 20:30,-86.722248,66.525493,15,32.3573,,-1.83,,33.111,,,,28727.6,
Niaqungu River,2022-05-06 20:45,-86.722248,66.525493,15,32.3346,,-1.83,,33.111,,,,28710.1,
Niaqungu River,2022-05-06 21:00,-86.722248,66.525493,15,32.4091,,-1.83,,33.111,,,,28770.3,
Niaqungu River,2022-05-06 21:15,-86.722248,66.525493,15,32.3645,,-1.84,,33.111,,,,28736.6,
Niaqungu River,2022-05-06 21:30,-86.722248,66.525493,15,32.3191,,-1.84,,33.11,,,,28701.8,
Niaqungu River,2022-05-06 21:45,-86.722248,66.525493,15,32.4183,,-1.84,,33.11,,,,28782,
Niaqungu River,2022-05-06 22:00,-86.722248,66.525493,15,32.3459,,-1.84,,33.11,,,,28724.4,
Niaqungu River,2022-05-06 22:15,-86.722248,66.525493,15,32.3222,,-1.84,,33.11,,,,28705.7,
Niaqungu River,2022-05-06 22:30,-86.722248,66.525493,15,32.2985,,-1.84,,33.11,,,,28687,
Niaqungu River,2022-05-06 22:45,-86.722248,66.525493,15,32.2728,,-1.84,,33.11,,,,28665.7,
Niaqungu River,2022-05-06 23:00,-86.722248,66.525493,15,32.2985,,-1.84,,33.11,,,,28687,
Niaqungu River,2022-05-06 23:15,-86.722248,66.525493,15,32.2728,,-1.84,,33.11,,,,28665.7,
Niaqungu River,2022-05-06 23:30,-86.722248,66.525493,15,32.2728,,-1.84,,33.11,,,,28665.7,
Niaqungu River,2022-05-06 23:45,-86.722248,66.525493,15,32.3717,,-1.84,,33.11,,,,28745.7,
Niaqungu River,2022-05-07 0:00,-86.722248,66.525493,15,32.315,,-1.84,,33.111,,,,28696.6,
Niaqungu River,2022-05-07 0:15,-86.722248,66.525493,15,32.2975,,-1.84,,33.11,,,,28685.7,
Niaqungu River,2022-05-07 0:30,-86.722248,66.525493,15,32.2359,,-1.83,,33.111,,,,28630.3,
Niaqungu River,2022-05-07 0:45,-86.722248,66.525493,15,32.2842,,-1.83,,33.111,,,,28668.9,
Niaqungu River,2022-05-07 1:00,-86.722248,66.525493,15,32.3356,,-1.83,,33.111,,,,28711.4,
Niaqungu River,2022-05-07 1:15,-86.722248,66.525493,15,32.2852,,-1.83,,33.111,,,,28670.2,
Niaqungu River,2022-05-07 1:30,-86.722248,66.525493,15,32.313,,-1.84,,33.111,,,,28694,
Niaqungu River,2022-05-07 1:45,-86.722248,66.525493,15,32.4578,,-1.83,,33.111,,,,28809.2,
Niaqungu River,2022-05-07 2:00,-86.722248,66.525493,15,32.3604,,-1.83,,33.111,,,,28731.4,
Niaqungu River,2022-05-07 2:15,-86.722248,66.525493,15,32.313,,-1.84,,33.111,,,,28694,
Niaqungu River,2022-05-07 2:30,-86.722248,66.525493,15,32.3356,,-1.83,,33.111,,,,28711.4,
Niaqungu River,2022-05-07 2:45,-86.722248,66.525493,15,32.3594,,-1.83,,33.111,,,,28730.2,
Niaqungu River,2022-05-07 3:00,-86.722248,66.525493,15,32.5339,,-1.83,,33.111,,,,28871.1,
Niaqungu River,2022-05-07 3:15,-86.722248,66.525493,15,32.408,,-1.83,,33.111,,,,28769,
Niaqungu River,2022-05-07 3:30,-86.722248,66.525493,15,32.3573,,-1.83,,33.111,,,,28727.6,
Niaqungu River,2022-05-07 3:45,-86.722248,66.525493,15,32.3058,,-1.83,,33.111,,,,28685,
Niaqungu River,2022-05-07 4:00,-86.722248,66.525493,15,32.2585,,-1.83,,33.111,,,,28647.7,
Niaqungu River,2022-05-07 4:15,-86.722248,66.525493,15,32.2062,,-1.83,,33.111,,,,28604,
Niaqungu River,2022-05-07 4:30,-86.722248,66.525493,15,32.2811,,-1.83,,33.111,,,,28665,
Niaqungu River,2022-05-07 4:45,-86.722248,66.525493,15,32.3811,,-1.83,,33.111,,,,28746.3,
Niaqungu River,2022-05-07 5:00,-86.722248,66.525493,15,32.3305,,-1.83,,33.111,,,,28705,
Niaqungu River,2022-05-07 5:15,-86.722248,66.525493,15,32.3068,,-1.83,,33.111,,,,28686.3,
Niaqungu River,2022-05-07 5:30,-86.722248,66.525493,15,32.4309,,-1.83,,33.111,,,,28786.5,
Niaqungu River,2022-05-07 5:45,-86.722248,66.525493,15,32.3573,,-1.83,,33.111,,,,28727.6,
Niaqungu River,2022-05-07 6:00,-86.722248,66.525493,15,32.3573,,-1.83,,33.111,,,,28727.6,
Niaqungu River,2022-05-07 6:15,-86.722248,66.525493,15,32.3089,,-1.83,,33.111,,,,28688.8,
Niaqungu River,2022-05-07 6:30,-86.722248,66.525493,15,32.3089,,-1.83,,33.111,,,,28688.8,
Niaqungu River,2022-05-07 6:45,-86.722248,66.525493,15,32.3336,,-1.83,,33.111,,,,28708.8,
Niaqungu River,2022-05-07 7:00,-86.722248,66.525493,15,32.4329,,-1.83,,33.111,,,,28789.1,
Niaqungu River,2022-05-07 7:15,-86.722248,66.525493,15,32.3832,,-1.83,,33.111,,,,28748.9,
Niaqungu River,2022-05-07 7:30,-86.722248,66.525493,15,32.3584,,-1.83,,33.111,,,,28728.9,
Niaqungu River,2022-05-07 7:45,-86.722248,66.525493,15,32.5078,,-1.83,,33.111,,,,28849.6,
Niaqungu River,2022-05-07 8:00,-86.722248,66.525493,15,32.5589,,-1.83,,33.111,,,,28891.3,
Niaqungu River,2022-05-07 8:15,-86.722248,66.525493,15,32.5099,,-1.83,,33.111,,,,28852.2,
Niaqungu River,2022-05-07 8:30,-86.722248,66.525493,15,32.436,,-1.83,,33.111,,,,28793,
Niaqungu River,2022-05-07 8:45,-86.722248,66.525493,15,32.562,,-1.84,,33.111,,,,28895.2,
Niaqungu River,2022-05-07 9:00,-86.722248,66.525493,15,32.5119,,-1.84,,33.111,,,,28854.8,
Niaqungu River,2022-05-07 9:15,-86.722248,66.525493,15,32.462,,-1.84,,33.111,,,,28814.4,
Niaqungu River,2022-05-07 9:30,-86.722248,66.525493,15,32.4869,,-1.84,,33.111,,,,28834.6,
Niaqungu River,2022-05-07 9:45,-86.722248,66.525493,15,32.5421,,-1.84,,33.11,,,,28881.5,
Niaqungu River,2022-05-07 10:00,-86.722248,66.525493,15,32.4432,,-1.84,,33.11,,,,28802.1,
Niaqungu River,2022-05-07 10:15,-86.722248,66.525493,15,32.3934,,-1.84,,33.11,,,,28761.9,
Niaqungu River,2022-05-07 10:30,-86.722248,66.525493,15,32.3717,,-1.84,,33.11,,,,28745.7,
Niaqungu River,2022-05-07 10:45,-86.722248,66.525493,15,32.3696,,-1.84,,33.11,,,,28743.1,
Niaqungu River,2022-05-07 11:00,-86.722248,66.525493,15,32.3965,,-1.84,,33.11,,,,28765.8,
Niaqungu River,2022-05-07 11:15,-86.722248,66.525493,15,32.3707,,-1.84,,33.11,,,,28744.4,
Niaqungu River,2022-05-07 11:30,-86.722248,66.525493,15,32.4702,,-1.84,,33.11,,,,28824.8,
Niaqungu River,2022-05-07 11:45,-86.722248,66.525493,15,32.3955,,-1.84,,33.11,,,,28764.5,
Niaqungu River,2022-05-07 12:00,-86.722248,66.525493,15,32.3377,,-1.84,,33.111,,,,28714,
Niaqungu River,2022-05-07 12:15,-86.722248,66.525493,15,32.3873,,-1.84,,33.111,,,,28754.1,
Niaqungu River,2022-05-07 12:30,-86.722248,66.525493,15,32.3635,,-1.84,,33.111,,,,28735.3,
Niaqungu River,2022-05-07 12:45,-86.722248,66.525493,15,32.3873,,-1.84,,33.111,,,,28754.1,
Niaqungu River,2022-05-07 13:00,-86.722248,66.525493,15,32.3625,,-1.84,,33.111,,,,28734,
Niaqungu River,2022-05-07 13:15,-86.722248,66.525493,15,32.3635,,-1.84,,33.111,,,,28735.3,
Niaqungu River,2022-05-07 13:30,-86.722248,66.525493,15,32.3377,,-1.84,,33.111,,,,28714,
Niaqungu River,2022-05-07 13:45,-86.722248,66.525493,15,32.313,,-1.84,,33.111,,,,28694,
Niaqungu River,2022-05-07 14:00,-86.722248,66.525493,15,32.2862,,-1.83,,33.111,,,,28671.5,
Niaqungu River,2022-05-07 14:15,-86.722248,66.525493,15,32.2872,,-1.83,,33.111,,,,28672.8,
Niaqungu River,2022-05-07 14:30,-86.722248,66.525493,15,32.2646,,-1.84,,33.111,,,,28655.4,
Niaqungu River,2022-05-07 14:45,-86.722248,66.525493,15,32.2626,,-1.83,,33.111,,,,28652.8,
Niaqungu River,2022-05-07 15:00,-86.722248,66.525493,15,32.2626,,-1.83,,33.111,,,,28652.8,
Niaqungu River,2022-05-07 15:15,-86.722248,66.525493,15,32.2379,,-1.83,,33.111,,,,28632.9,
Niaqungu River,2022-05-07 15:30,-86.722248,66.525493,15,32.2883,,-1.84,,33.111,,,,28674.1,
Niaqungu River,2022-05-07 15:45,-86.722248,66.525493,15,32.2328,,-1.83,,33.111,,,,28626.5,
Niaqungu River,2022-05-07 16:00,-86.722248,66.525493,15,32.2072,,-1.83,,33.111,,,,28605.3,
Niaqungu River,2022-05-07 16:15,-86.722248,66.525493,15,32.1827,,-1.83,,33.111,,,,28585.4,
Niaqungu River,2022-05-07 16:30,-86.722248,66.525493,15,32.3078,,-1.83,,33.111,,,,28687.6,
Niaqungu River,2022-05-07 16:45,-86.722248,66.525493,15,32.2811,,-1.83,,33.111,,,,28665,
Niaqungu River,2022-05-07 17:00,-86.722248,66.525493,15,32.2564,,-1.83,,33.111,,,,28645.1,
Niaqungu River,2022-05-07 17:15,-86.722248,66.525493,15,32.2328,,-1.83,,33.111,,,,28626.5,
Niaqungu River,2022-05-07 17:30,-86.722248,66.525493,15,32.2801,,-1.83,,33.111,,,,28663.7,
Niaqungu River,2022-05-07 17:45,-86.722248,66.525493,15,32.3099,,-1.83,,33.111,,,,28690.1,
Niaqungu River,2022-05-07 18:00,-86.722248,66.525493,15,32.2605,,-1.83,,33.111,,,,28650.2,
Niaqungu River,2022-05-07 18:15,-86.722248,66.525493,15,32.2605,,-1.83,,33.111,,,,28650.2,
Niaqungu River,2022-05-07 18:30,-86.722248,66.525493,15,32.3584,,-1.83,,33.111,,,,28728.9,
Niaqungu River,2022-05-07 18:45,-86.722248,66.525493,15,32.3316,,-1.83,,33.111,,,,28706.3,
Niaqungu River,2022-05-07 19:00,-86.722248,66.525493,15,32.3068,,-1.83,,33.111,,,,28686.3,
Niaqungu River,2022-05-07 19:15,-86.722248,66.525493,15,32.2585,,-1.83,,33.111,,,,28647.7,
Niaqungu River,2022-05-07 19:30,-86.722248,66.525493,15,32.2564,,-1.83,,33.111,,,,28645.1,
Niaqungu River,2022-05-07 19:45,-86.722248,66.525493,15,32.2308,,-1.83,,33.111,,,,28623.9,
Niaqungu River,2022-05-07 20:00,-86.722248,66.525493,15,32.2554,,-1.83,,33.111,,,,28643.8,
Niaqungu River,2022-05-07 20:15,-86.722248,66.525493,15,32.2554,,-1.83,,33.111,,,,28643.8,
Niaqungu River,2022-05-07 20:30,-86.722248,66.525493,15,32.2585,,-1.83,,33.111,,,,28647.7,
Niaqungu River,2022-05-07 20:45,-86.722248,66.525493,15,32.2308,,-1.83,,33.111,,,,28623.9,
Niaqungu River,2022-05-07 21:00,-86.722248,66.525493,15,32.2093,,-1.83,,33.111,,,,28607.9,
Niaqungu River,2022-05-07 21:15,-86.722248,66.525493,15,32.2103,,-1.83,,33.111,,,,28609.2,
Niaqungu River,2022-05-07 21:30,-86.722248,66.525493,15,32.1857,,-1.83,,33.111,,,,28589.3,
Niaqungu River,2022-05-07 21:45,-86.722248,66.525493,15,32.1878,,-1.83,,33.111,,,,28591.9,
Niaqungu River,2022-05-07 22:00,-86.722248,66.525493,15,32.2164,,-1.84,,33.111,,,,28616.9,
Niaqungu River,2022-05-07 22:15,-86.722248,66.525493,15,32.2184,,-1.84,,33.111,,,,28619.5,
Niaqungu River,2022-05-07 22:30,-86.722248,66.525493,15,32.317,,-1.84,,33.111,,,,28699.2,
Niaqungu River,2022-05-07 22:45,-86.722248,66.525493,15,32.2687,,-1.84,,33.11,,,,28660.6,
Niaqungu River,2022-05-07 23:00,-86.722248,66.525493,15,32.2707,,-1.84,,33.11,,,,28663.2,
Niaqungu River,2022-05-07 23:15,-86.722248,66.525493,15,32.2461,,-1.84,,33.11,,,,28643.2,
Niaqungu River,2022-05-07 23:30,-86.722248,66.525493,15,32.2195,,-1.84,,33.11,,,,28620.8,
Niaqungu River,2022-05-07 23:45,-86.722248,66.525493,15,32.2451,,-1.84,,33.11,,,,28642,
Niaqungu River,2022-05-08 0:00,-86.722248,66.525493,15,32.243,,-1.84,,33.111,,,,28639.4,
Niaqungu River,2022-05-08 0:15,-86.722248,66.525493,15,32.2154,,-1.84,,33.111,,,,28615.6,
Niaqungu River,2022-05-08 0:30,-86.722248,66.525493,15,32.2646,,-1.84,,33.111,,,,28655.4,
Niaqungu River,2022-05-08 0:45,-86.722248,66.525493,15,32.239,,-1.84,,33.111,,,,28634.2,
Niaqungu River,2022-05-08 1:00,-86.722248,66.525493,15,32.2359,,-1.83,,33.111,,,,28630.3,
Niaqungu River,2022-05-08 1:15,-86.722248,66.525493,15,32.2113,,-1.83,,33.111,,,,28610.5,
Niaqungu River,2022-05-08 1:30,-86.722248,66.525493,15,32.1622,,-1.83,,33.111,,,,28570.8,
Niaqungu River,2022-05-08 1:45,-86.722248,66.525493,15,32.2369,,-1.83,,33.111,,,,28631.6,
Niaqungu River,2022-05-08 2:00,-86.722248,66.525493,15,32.2123,,-1.83,,33.111,,,,28611.7,
Niaqungu River,2022-05-08 2:15,-86.722248,66.525493,15,32.1878,,-1.83,,33.111,,,,28591.9,
Niaqungu River,2022-05-08 2:30,-86.722248,66.525493,15,32.1888,,-1.83,,33.111,,,,28593.2,
Niaqungu River,2022-05-08 2:45,-86.722248,66.525493,15,32.1643,,-1.83,,33.111,,,,28573.3,
Niaqungu River,2022-05-08 3:00,-86.722248,66.525493,15,32.2369,,-1.83,,33.111,,,,28631.6,
Niaqungu River,2022-05-08 3:15,-86.722248,66.525493,15,32.1878,,-1.83,,33.111,,,,28591.9,
Niaqungu River,2022-05-08 3:30,-86.722248,66.525493,15,32.1857,,-1.83,,33.111,,,,28589.3,
Niaqungu River,2022-05-08 3:45,-86.722248,66.525493,15,32.2585,,-1.83,,33.111,,,,28647.7,
Niaqungu River,2022-05-08 4:00,-86.722248,66.525493,15,32.2801,,-1.83,,33.111,,,,28663.7,
Niaqungu River,2022-05-08 4:15,-86.722248,66.525493,15,32.2082,,-1.83,,33.111,,,,28606.6,
Niaqungu River,2022-05-08 4:30,-86.722248,66.525493,15,32.2821,,-1.83,,33.111,,,,28666.3,
Niaqungu River,2022-05-08 4:45,-86.722248,66.525493,15,32.3295,,-1.83,,33.111,,,,28703.7,
Niaqungu River,2022-05-08 5:00,-86.722248,66.525493,15,32.2811,,-1.83,,33.111,,,,28665,
Niaqungu River,2022-05-08 5:15,-86.722248,66.525493,15,32.2338,,-1.83,,33.111,,,,28627.8,
Niaqungu River,2022-05-08 5:30,-86.722248,66.525493,15,32.2072,,-1.83,,33.111,,,,28605.3,
Niaqungu River,2022-05-08 5:45,-86.722248,66.525493,15,32.2072,,-1.83,,33.111,,,,28605.3,
Niaqungu River,2022-05-08 6:00,-86.722248,66.525493,15,32.1816,,-1.83,,33.111,,,,28584.2,
Niaqungu River,2022-05-08 6:15,-86.722248,66.525493,15,32.1827,,-1.83,,33.111,,,,28585.4,
Niaqungu River,2022-05-08 6:30,-86.722248,66.525493,15,32.2062,,-1.83,,33.111,,,,28604,
Niaqungu River,2022-05-08 6:45,-86.722248,66.525493,15,32.3068,,-1.83,,33.111,,,,28686.3,
Niaqungu River,2022-05-08 7:00,-86.722248,66.525493,15,32.2554,,-1.83,,33.111,,,,28643.8,
Niaqungu River,2022-05-08 7:15,-86.722248,66.525493,15,32.2308,,-1.83,,33.111,,,,28623.9,
Niaqungu River,2022-05-08 7:30,-86.722248,66.525493,15,32.2318,,-1.83,,33.111,,,,28625.2,
Niaqungu River,2022-05-08 7:45,-86.722248,66.525493,15,32.2318,,-1.83,,33.111,,,,28625.2,
Niaqungu River,2022-05-08 8:00,-86.722248,66.525493,15,32.2554,,-1.83,,33.111,,,,28643.8,
Niaqungu River,2022-05-08 8:15,-86.722248,66.525493,15,32.2093,,-1.83,,33.111,,,,28607.9,
Niaqungu River,2022-05-08 8:30,-86.722248,66.525493,15,32.2072,,-1.83,,33.111,,,,28605.3,
Niaqungu River,2022-05-08 8:45,-86.722248,66.525493,15,32.2328,,-1.83,,33.111,,,,28626.5,
Niaqungu River,2022-05-08 9:00,-86.722248,66.525493,15,32.2318,,-1.83,,33.111,,,,28625.2,
Niaqungu River,2022-05-08 9:15,-86.722248,66.525493,15,32.2093,,-1.83,,33.111,,,,28607.9,
Niaqungu River,2022-05-08 9:30,-86.722248,66.525493,15,32.2093,,-1.83,,33.111,,,,28607.9,
Niaqungu River,2022-05-08 9:45,-86.722248,66.525493,15,32.2852,,-1.83,,33.111,,,,28670.2,
Niaqungu River,2022-05-08 10:00,-86.722248,66.525493,15,32.2369,,-1.83,,33.111,,,,28631.6,
Niaqungu River,2022-05-08 10:15,-86.722248,66.525493,15,32.2103,,-1.83,,33.111,,,,28609.2,
Niaqungu River,2022-05-08 10:30,-86.722248,66.525493,15,32.2123,,-1.83,,33.111,,,,28611.7,
Niaqungu River,2022-05-08 10:45,-86.722248,66.525493,15,32.1878,,-1.83,,33.111,,,,28591.9,
Niaqungu River,2022-05-08 11:00,-86.722248,66.525493,15,32.1929,,-1.84,,33.111,,,,28598.3,
Niaqungu River,2022-05-08 11:15,-86.722248,66.525493,15,32.1704,,-1.84,,33.11,,,,28581.1,
Niaqungu River,2022-05-08 11:30,-86.722248,66.525493,15,32.2666,,-1.84,,33.111,,,,28658,
Niaqungu River,2022-05-08 11:45,-86.722248,66.525493,15,32.315,,-1.84,,33.111,,,,28696.6,
Niaqungu River,2022-05-08 12:00,-86.722248,66.525493,15,32.2893,,-1.84,,33.111,,,,28675.3,